QPF
0.00 0.00 0.00 0.00 0.00 0.00 0.00 0.00 0.01 0.01 0.01 0.01 0.01 0.01 0.02 0.02 0.02 0.02 0.01 0.03 0.03 0.04 0.06 0.05 0.07 0.07 0.06 0.07 0.07 0.08 0.07 0.05 0.04 0.04 0.05 0.03 0.01 0.01 0.01 0.01 0.02 0.02 0.04
0.00 0.00 0.00 0.00 0.00 0.00 0.00 0.00 0.00 0.01 0.00 0.01 0.01 0.01 0.02 0.02 0.02 0.02 0.02 0.03 0.04 0.04 0.05 0.07 0.06 0.06 0.07 0.07 0.07 0.07 0.07 0.06 0.04 0.05 0.06 0.05 0.04 0.02 0.01 0.01 0.01 0.01 0.02
0.00 0.00 0.00 0.00 0.00 0.00 0.00 0.00 0.00 0.00 0.01 0.01 0.01 0.01 0.01 0.01 0.02 0.02 0.02 0.02 0.02 0.03 0.04 0.05 0.06 0.06 0.07 0.08 0.09 0.07 0.07 0.08 0.06 0.05 0.07 0.08 0.09 0.07 0.03 0.02 0.02 0.03 0.04
0.00 0.00 0.00 0.00 0.00 0.00 0.01 0.01 0.01 0.01 0.01 0.01 0.01 0.01 0.01 0.01 0.02 0.02 0.02 0.02 0.01 0.01 0.03 0.03 0.04 0.05 0.05 0.08 0.08 0.06 0.08 0.08 0.08 0.06 0.05 0.05 0.06 0.08 0.07 0.04 0.03 0.03 0.03
0.00 0.00 0.00 0.00 0.00 0.00 0.00 0.01 0.02 0.02 0.01 0.01 0.02 0.03 0.03 0.01 0.02 0.03 0.04 0.03 0.01 0.01 0.01 0.02 0.03 0.05 0.04 0.06 0.07 0.07 0.08 0.07 0.08 0.08 0.08 0.09 0.07 0.07 0.06 0.06 0.06 0.04 0.03
0.00 0.00 0.00 0.00 0.00 0.01 0.02 0.06 0.07 0.03 0.01 0.01 0.02 0.04 0.05 0.03 0.02 0.03 0.04 0.04 0.03 0.02 0.01 0.02 0.04 0.04 0.04 0.06 0.07 0.07 0.07 0.08 0.08 0.09 0.09 0.10 0.08 0.07 0.06 0.05 0.06 0.05 0.03
0.00 0.00 0.00 0.01 0.01 0.02 0.06 0.11 0.08 0.02 0.01 0.01 0.02 0.04 0.05 0.05 0.04 0.03 0.03 0.04 0.05 0.04 0.03 0.03 0.04 0.04 0.05 0.05 0.06 0.06 0.06 0.07 0.08 0.08 0.08 0.07 0.07 0.07 0.07 0.07 0.07 0.05 0.03
0.00 0.00 0.01 0.02 0.02 0.03 0.05 0.05 0.02 0.01 0.00 0.00 0.01 0.01 0.02 0.02 0.02 0.02 0.02 0.02 0.04 0.05 0.04 0.03 0.04 0.05 0.05 0.05 0.06 0.06 0.05 0.06 0.07 0.07 0.08 0.07 0.06 0.06 0.05 0.06 0.07 0.06 0.05
0.00 0.00 0.00 0.00 0.01 0.01 0.02 0.02 0.02 0.02 0.01 0.01 0.01 0.01 0.01 0.01 0.01 0.01 0.02 0.02 0.04 0.04 0.02 0.02 0.03 0.04 0.04 0.06 0.06 0.06 0.05 0.06 0.06 0.06 0.07 0.06 0.06 0.05 0.05 0.05 0.05 0.06 0.05
0.00 0.00 0.00 0.00 0.00 0.01 0.01 0.01 0.01 0.01 0.02 0.02 0.01 0.01 0.01 0.01 0.02 0.01 0.01 0.02 0.04 0.04 0.03 0.03 0.03 0.03 0.03 0.05 0.05 0.05 0.05 0.06 0.06 0.05 0.05 0.05 0.04 0.04 0.05 0.04 0.05 0.05 0.04
0.00 0.00 0.00 0.00 0.00 0.00 0.01 0.01 0.00 0.01 0.02 0.02 0.02 0.02 0.03 0.02 0.02 0.01 0.01 0.02 0.04 0.04 0.03 0.03 0.02 0.02 0.02 0.03 0.04 0.04 0.04 0.04 0.05 0.04 0.04 0.04 0.04 0.04 0.04 0.04 0.04 0.04 0.04
0.00 0.00 0.00 0.00 0.00 0.00 0.00 0.01 0.01 0.01 0.02 0.02 0.03 0.03 0.03 0.03 0.02 0.02 0.02 0.02 0.03 0.03 0.03 0.03 0.03 0.03 0.03 0.04 0.04 0.04 0.05 0.05 0.04 0.04 0.05 0.05 0.05 0.05 0.04 0.04 0.04 0.04 0.04
0.00 0.00 0.00 0.00 0.00 0.00 0.01 0.01 0.02 0.02 0.03 0.03 0.03 0.03 0.04 0.05 0.05 0.05 0.05 0.03 0.02 0.01 0.02 0.02 0.02 0.03 0.03 0.03 0.03 0.03 0.04 0.05 0.04 0.05 0.04 0.04 0.05 0.04 0.04 0.04 0.04 0.03 0.03
0.00 0.00 0.00 0.00 0.00 0.01 0.01 0.01 0.02 0.03 0.04 0.07 0.06 0.06 0.08 0.10 0.10 0.08 0.06 0.03 0.01 0.01 0.01 0.01 0.02 0.02 0.02 0.03 0.02 0.02 0.03 0.03 0.03 0.03 0.03 0.04 0.04 0.04 0.05 0.04 0.05 0.04 0.04
0.01 0.01 0.01 0.02 0.02 0.02 0.03 0.03 0.03 0.04 0.06 0.09 0.08 0.09 0.09 0.08 0.08 0.07 0.06 0.04 0.01 0.01 0.01 0.01 0.02 0.02 0.02 0.01 0.02 0.01 0.01 0.02 0.03 0.04 0.03 0.03 0.04 0.05 0.04 0.03 0.04 0.05 0.05
0.01 0.01 0.01 0.01 0.01 0.01 0.03 0.03 0.05 0.07 0.10 0.14 0.15 0.12 0.09 0.07 0.07 0.08 0.07 0.05 0.04 0.02 0.01 0.01 0.02 0.02 0.01 0.02 0.02 0.02 0.03 0.02 0.03 0.03 0.02 0.02 0.03 0.03 0.04 0.03 0.03 0.04 0.04
0.01 0.01 0.02 0.02 0.03 0.04 0.05 0.05 0.05 0.06 0.08 0.09 0.09 0.07 0.06 0.04 0.04 0.04 0.04 0.05 0.06 0.06 0.04 0.03 0.03 0.02 0.03 0.03 0.02 0.02 0.02 0.02 0.02 0.02 0.02 0.02 0.02 0.04 0.04 0.04 0.02 0.02 0.02
0.02 0.02 0.03 0.04 0.04 0.05 0.06 0.07 0.06 0.04 0.04 0.04 0.05 0.04 0.03 0.02 0.02 0.02 0.02 0.02 0.03 0.05 0.08 0.10 0.09 0.06 0.04 0.04 0.03 0.03 0.03 0.02 0.02 0.02 0.02 0.02 0.03 0.04 0.05 0.05 0.03 0.02 0.02
0.02 0.02 0.02 0.02 0.03 0.05 0.05 0.05 0.03 0.02 0.02 0.02 0.02 0.01 0.01 0.01 0.02 0.03 0.04 0.03 0.03 0.04 0.07 0.08 0.07 0.06 0.04 0.03 0.02 0.02 0.02 0.02 0.02 0.03 0.02 0.03 0.03 0.03 0.05 0.05 0.04 0.03 0.02
0.02 0.02 0.02 0.02 0.02 0.03 0.02 0.03 0.03 0.03 0.03 0.02 0.02 0.01 0.02 0.03 0.04 0.06 0.07 0.06 0.07 0.12 0.11 0.06 0.03 0.01 0.01 0.02 0.02 0.02 0.02 0.02 0.03 0.03 0.03 0.03 0.03 0.03 0.04 0.03 0.03 0.02 0.02
0.02 0.02 0.01 0.01 0.01 0.01 0.02 0.04 0.05 0.06 0.05 0.05 0.03 0.02 0.03 0.04 0.05 0.07 0.06 0.05 0.04 0.04 0.03 0.03 0.02 0.01 0.01 0.01 0.02 0.02 0.02 0.02 0.03 0.03 0.02 0.02 0.03 0.03 0.03 0.03 0.02 0.03 0.04
0.02 0.01 0.01 0.01 0.01 0.01 0.02 0.03 0.03 0.02 0.03 0.04 0.05 0.05 0.06 0.06 0.05 0.05 0.03 0.02 0.02 0.02 0.03 0.03 0.02 0.02 0.02 0.01 0.02 0.02 0.03 0.03 0.03 0.03 0.03 0.03 0.04 0.04 0.04 0.04 0.03 0.04 0.05
0.01 0.01 0.01 0.01 0.01 0.02 0.02 0.02 0.02 0.02 0.02 0.02 0.02 0.02 0.03 0.03 0.03 0.02 0.02 0.01 0.01 0.01 0.01 0.02 0.02 0.03 0.04 0.04 0.04 0.04 0.04 0.04 0.04 0.04 0.04 0.04 0.05 0.06 0.06 0.06 0.07 0.08 0.06
0.01 0.00 0.01 0.01 0.02 0.02 0.02 0.02 0.02 0.02 0.01 0.01 0.01 0.01 0.02 0.03 0.03 0.02 0.01 0.01 0.01 0.01 0.02 0.02 0.02 0.03 0.03 0.03 0.04 0.04 0.04 0.04 0.05 0.05 0.05 0.06 0.07 0.08 0.09 0.10 0.11 0.10 0.07
0.01 0.01 0.00 0.01 0.03 0.03 0.03 0.02 0.02 0.02 0.01 0.01 0.01 0.01 0.02 0.02 0.02 0.02 0.01 0.01 0.01 0.02 0.02 0.02 0.01 0.01 0.02 0.03 0.05 0.05 0.05 0.05 0.05 0.06 0.05 0.06 0.06 0.07 0.08 0.09 0.11 0.11 0.10
0.02 0.02 0.01 0.02 0.03 0.03 0.02 0.03 0.02 0.01 0.01 0.01 0.01 0.02 0.02 0.01 0.01 0.01 0.01 0.01 0.01 0.01 0.01 0.02 0.02 0.02 0.02 0.04 0.05 0.05 0.04 0.04 0.05 0.05 0.05 0.05 0.07 0.07 0.07 0.09 0.10 0.11 0.12
MSLP
1006.05 1006.31 1006.58 1006.85 1007.15 1007.47 1007.83 1008.23 1008.64 1009.04 1009.42 1009.76 1010.05 1010.30 1010.51 1010.72 1010.94 1011.17 1011.43 1011.69 1011.97 1012.24 1012.51 1012.78 1013.07 1013.41 1013.81 1014.28 1014.80 1015.35 1015.87 1016.31 1016.61 1016.74 1016.69 1016.46 1016.10 1015.68 1015.25 1014.88 1014.62 1014.49 1014.50
1005.63 1005.95 1006.26 1006.57 1006.88 1007.21 1007.57 1007.95 1008.36 1008.77 1009.17 1009.54 1009.87 1010.16 1010.42 1010.65 1010.89 1011.13 1011.39 1011.67 1011.94 1012.22 1012.50 1012.77 1013.06 1013.37 1013.73 1014.13 1014.58 1015.05 1015.51 1015.92 1016.22 1016.39 1016.40 1016.26 1016.00 1015.65 1015.27 1014.91 1014.61 1014.40 1014.30
1004.97 1005.35 1005.73 1006.11 1006.48 1006.85 1007.24 1007.65 1008.07 1008.51 1008.95 1009.35 1009.72 1010.05 1010.34 1010.59 1010.84 1011.08 1011.34 1011.61 1011.89 1012.18 1012.47 1012.75 1013.03 1013.33 1013.64 1013.98 1014.36 1014.76 1015.15 1015.52 1015.82 1016.03 1016.11 1016.07 1015.91 1015.65 1015.34 1015.00 1014.68 1014.41 1014.20
1004.02 1004.47 1004.95 1005.42 1005.87 1006.32 1006.78 1007.24 1007.72 1008.21 1008.70 1009.15 1009.57 1009.93 1010.24 1010.51 1010.75 1010.99 1011.24 1011.50 1011.79 1012.09 1012.39 1012.69 1012.99 1013.28 1013.56 1013.86 1014.17 1014.50 1014.83 1015.16 1015.45 1015.68 1015.83 1015.88 1015.82 1015.66 1015.42 1015.12 1014.79 1014.47 1014.18
1002.83 1003.36 1003.92 1004.50 1005.06 1005.61 1006.15 1006.70 1007.25 1007.81 1008.36 1008.88 1009.35 1009.75 1010.09 1010.37 1010.60 1010.83 1011.07 1011.32 1011.61 1011.92 1012.25 1012.59 1012.91 1013.21 1013.49 1013.76 1014.02 1014.29 1014.57 1014.85 1015.12 1015.36 1015.55 1015.67 1015.70 1015.63 1015.46 1015.20 1014.88 1014.53 1014.17
1001.51 1002.09 1002.74 1003.40 1004.06 1004.71 1005.34 1005.98 1006.62 1007.27 1007.90 1008.49 1009.02 1009.47 1009.84 1010.13 1010.38 1010.59 1010.81 1011.07 1011.35 1011.69 1012.05 1012.41 1012.77 1013.10 1013.40 1013.67 1013.90 1014.13 1014.35 1014.59 1014.83 1015.06 1015.27 1015.43 1015.51 1015.51 1015.40 1015.19 1014.89 1014.53 1014.13
1000.21 1000.82 1001.51 1002.24 1002.97 1003.69 1004.40 1005.12 1005.84 1006.57 1007.28 1007.95 1008.55 1009.07 1009.48 1009.80 1010.06 1010.27 1010.49 1010.74 1011.03 1011.38 1011.77 1012.18 1012.59 1012.96 1013.29 1013.56 1013.78 1013.98 1014.15 1014.34 1014.53 1014.73 1014.93 1015.10 1015.22 1015.27 1015.21 1015.05 1014.78 1014.43 1014.03
999.13 999.71 1000.41 1001.15 1001.90 1002.65 1003.40 1004.17 1004.95 1005.75 1006.53 1007.28 1007.96 1008.55 1009.02 1009.38 1009.66 1009.89 1010.11 1010.36 1010.66 1011.03 1011.45 1011.90 1012.35 1012.77 1013.13 1013.42 1013.64 1013.80 1013.94 1014.06 1014.19 1014.35 1014.51 1014.67 1014.80 1014.87 1014.86 1014.75 1014.52 1014.21 1013.83
998.41 998.93 999.57 1000.27 1000.98 1001.70 1002.44 1003.21 1004.02 1004.85 1005.70 1006.51 1007.27 1007.93 1008.47 1008.89 1009.21 1009.47 1009.70 1009.96 1010.28 1010.66 1011.10 1011.59 1012.08 1012.53 1012.92 1013.23 1013.44 1013.58 1013.67 1013.73 1013.79 1013.88 1013.99 1014.12 1014.24 1014.34 1014.36 1014.29 1014.13 1013.87 1013.54
998.15 998.58 999.11 999.69 1000.31 1000.94 1001.61 1002.34 1003.12 1003.96 1004.83 1005.70 1006.52 1007.25 1007.86 1008.35 1008.72 1009.02 1009.29 1009.57 1009.90 1010.30 1010.76 1011.27 1011.78 1012.26 1012.66 1012.97 1013.17 1013.28 1013.32 1013.32 1013.31 1013.33 1013.38 1013.47 1013.57 1013.67 1013.73 1013.72 1013.63 1013.44 1013.18
998.40 998.69 999.07 999.49 999.95 1000.44 1000.99 1001.61 1002.33 1003.13 1004.00 1004.88 1005.75 1006.53 1007.21 1007.77 1008.21 1008.57 1008.88 1009.19 1009.54 1009.95 1010.42 1010.94 1011.45 1011.94 1012.34 1012.64 1012.83 1012.91 1012.89 1012.83 1012.75 1012.70 1012.69 1012.73 1012.82 1012.92 1013.01 1013.06 1013.04 1012.94 1012.76
999.07 999.20 999.40 999.64 999.90 1000.21 1000.60 1001.08 1001.69 1002.42 1003.24 1004.11 1004.99 1005.81 1006.55 1007.17 1007.67 1008.09 1008.45 1008.80 1009.18 1009.60 1010.07 1010.58 1011.10 1011.57 1011.96 1012.24 1012.40 1012.44 1012.39 1012.27 1012.14 1012.03 1011.97 1011.97 1012.04 1012.15 1012.27 1012.38 1012.43 1012.42 1012.32
1000.04 1000.02 1000.03 1000.06 1000.12 1000.23 1000.43 1000.76 1001.23 1001.84 1002.58 1003.41 1004.26 1005.10 1005.86 1006.53 1007.10 1007.57 1007.99 1008.38 1008.78 1009.22 1009.69 1010.19 1010.68 1011.13 1011.50 1011.76 1011.89 1011.91 1011.82 1011.66 1011.49 1011.34 1011.24 1011.23 1011.28 1011.40 1011.55 1011.71 1011.83 1011.89 1011.87
1001.18 1000.99 1000.82 1000.66 1000.52 1000.44 1000.46 1000.62 1000.93 1001.42 1002.05 1002.80 1003.60 1004.41 1005.18 1005.87 1006.48 1007.00 1007.46 1007.90 1008.32 1008.77 1009.24 1009.72 1010.19 1010.62 1010.96 1011.19 1011.31 1011.30 1011.19 1011.03 1010.84 1010.67 1010.57 1010.54 1010.59 1010.72 1010.90 1011.09 1011.26 1011.38 1011.42
1002.34 1002.01 1001.67 1001.35 1001.04 1000.79 1000.65 1000.64 1000.81 1001.15 1001.66 1002.30 1003.02 1003.78 1004.52 1005.22 1005.84 1006.40 1006.89 1007.36 1007.81 1008.26 1008.72 1009.18 1009.63 1010.02 1010.33 1010.55 1010.65 1010.64 1010.55 1010.39 1010.22 1010.06 1009.96 1009.94 1010.00 1010.14 1010.33 1010.54 1010.74 1010.89 1010.98
1003.41 1002.96 1002.50 1002.04 1001.61 1001.23 1000.95 1000.81 1000.84 1001.05 1001.43 1001.95 1002.57 1003.25 1003.94 1004.61 1005.23 1005.80 1006.32 1006.80 1007.26 1007.71 1008.15 1008.59 1009.00 1009.36 1009.65 1009.85 1009.95 1009.97 1009.90 1009.78 1009.65 1009.54 1009.47 1009.46 1009.54 1009.67 1009.86 1010.07 1010.28 1010.44 1010.55
1004.34 1003.79 1003.25 1002.70 1002.19 1001.72 1001.35 1001.11 1001.03 1001.12 1001.37 1001.77 1002.28 1002.87 1003.50 1004.12 1004.72 1005.28 1005.80 1006.28 1006.74 1007.17 1007.59 1007.99 1008.36 1008.69 1008.96 1009.15 1009.28 1009.32 1009.31 1009.25 1009.18 1009.12 1009.10 1009.12 1009.21 1009.35 1009.52 1009.71 1009.89 1010.04 1010.14
1005.08 1004.49 1003.90 1003.31 1002.76 1002.26 1001.85 1001.54 1001.38 1001.37 1001.51 1001.80 1002.21 1002.71 1003.26 1003.83 1004.40 1004.94 1005.44 1005.91 1006.35 1006.75 1007.13 1007.49 1007.81 1008.10 1008.34 1008.54 1008.68 1008.77 1008.81 1008.83 1008.83 1008.84 1008.87 1008.94 1009.03 1009.16 1009.31 1009.46 1009.59 1009.70 1009.77
1005.67 1005.05 1004.46 1003.88 1003.34 1002.84 1002.41 1002.08 1001.87 1001.79 1001.86 1002.06 1002.38 1002.80 1003.29 1003.81 1004.33 1004.84 1005.32 1005.76 1006.16 1006.53 1006.86 1007.15 1007.43 1007.67 1007.88 1008.07 1008.23 1008.36 1008.47 1008.56 1008.64 1008.72 1008.81 1008.90 1009.00 1009.11 1009.22 1009.32 1009.39 1009.44 1009.46
1006.12 1005.53 1004.97 1004.43 1003.92 1003.45 1003.03 1002.70 1002.47 1002.36 1002.37 1002.52 1002.78 1003.14 1003.57 1004.05 1004.54 1005.02 1005.47 1005.88 1006.24 1006.55 1006.83 1007.06 1007.27 1007.46 1007.64 1007.81 1007.98 1008.15 1008.31 1008.46 1008.61 1008.75 1008.88 1009.00 1009.10 1009.19 1009.25 1009.28 1009.29 1009.27 1009.23
1006.50 1005.95 1005.44 1004.96 1004.50 1004.08 1003.70 1003.38 1003.15 1003.03 1003.02 1003.13 1003.35 1003.68 1004.08 1004.53 1005.00 1005.46 1005.89 1006.26 1006.58 1006.84 1007.05 1007.22 1007.37 1007.50 1007.64 1007.79 1007.95 1008.14 1008.33 1008.52 1008.72 1008.90 1009.06 1009.19 1009.28 1009.34 1009.36 1009.34 1009.28 1009.20 1009.09
1006.84 1006.37 1005.92 1005.50 1005.10 1004.72 1004.38 1004.09 1003.87 1003.75 1003.73 1003.83 1004.04 1004.35 1004.74 1005.18 1005.63 1006.08 1006.48 1006.83 1007.11 1007.33 1007.48 1007.60 1007.68 1007.77 1007.86 1007.98 1008.13 1008.30 1008.51 1008.72 1008.94 1009.13 1009.30 1009.43 1009.51 1009.54 1009.52 1009.45 1009.35 1009.21 1009.06
1007.21 1006.81 1006.43 1006.06 1005.71 1005.37 1005.05 1004.78 1004.58 1004.46 1004.44 1004.54 1004.75 1005.06 1005.44 1005.88 1006.33 1006.77 1007.16 1007.49 1007.75 1007.93 1008.04 1008.11 1008.15 1008.19 1008.24 1008.32 1008.44 1008.60 1008.79 1009.00 1009.21 1009.39 1009.55 1009.66 1009.72 1009.73 1009.67 1009.58 1009.44 1009.28 1009.10
1007.63 1007.30 1006.98 1006.66 1006.34 1006.02 1005.72 1005.46 1005.26 1005.14 1005.12 1005.22 1005.42 1005.72 1006.10 1006.53 1006.98 1007.41 1007.79 1008.11 1008.35 1008.52 1008.61 1008.65 1008.66 1008.67 1008.69 1008.74 1008.83 1008.96 1009.12 1009.29 1009.47 1009.63 1009.76 1009.84 1009.88 1009.86 1009.79 1009.69 1009.55 1009.38 1009.20
1008.15 1007.87 1007.60 1007.31 1007.00 1006.69 1006.39 1006.12 1005.91 1005.78 1005.75 1005.82 1006.01 1006.29 1006.65 1007.06 1007.49 1007.91 1008.29 1008.60 1008.84 1009.00 1009.09 1009.13 1009.13 1009.13 1009.13 1009.16 1009.22 1009.31 1009.42 1009.55 1009.68 1009.79 1009.88 1009.93 1009.95 1009.92 1009.85 1009.75 1009.63 1009.49 1009.34
1008.76 1008.54 1008.29 1008.01 1007.71 1007.39 1007.08 1006.79 1006.56 1006.40 1006.34 1006.38 1006.52 1006.76 1007.08 1007.45 1007.85 1008.24 1008.60 1008.90 1009.14 1009.31 1009.42 1009.47 1009.49 1009.50 1009.50 1009.51 1009.55 1009.60 1009.67 1009.75 1009.82 1009.88 1009.92 1009.94 1009.93 1009.90 1009.84 1009.77 1009.69 1009.60 1009.49
Thickness
5830 5827 5822 5818 5813 5806 5801 5796 5792 5788 5784 5781 5778 5774 5773 5773 5772 5770 5768 5765 5764 5762 5760 5761 5759 5759 5759 5757 5758 5757 5756 5756 5757 5756 5756 5760 5763 5762 5761 5762 5761 5761 5760
5831 5827 5824 5820 5816 5809 5805 5800 5795 5792 5788 5786 5782 5779 5777 5776 5775 5773 5770 5768 5766 5764 5764 5761 5761 5761 5759 5757 5757 5756 5756 5757 5758 5755 5753 5752 5755 5758 5762 5761 5760 5759 5759
5834 5830 5825 5823 5820 5814 5809 5806 5801 5796 5792 5789 5785 5782 5778 5776 5775 5773 5772 5771 5769 5767 5765 5764 5763 5762 5761 5760 5758 5757 5755 5755 5757 5758 5753 5749 5747 5753 5759 5759 5759 5757 5756
5839 5835 5830 5826 5823 5820 5816 5810 5804 5799 5795 5791 5787 5783 5779 5776 5776 5776 5775 5773 5771 5769 5768 5766 5765 5763 5764 5761 5760 5760 5757 5754 5754 5756 5756 5755 5754 5748 5749 5756 5758 5756 5754
5844 5839 5836 5832 5829 5825 5820 5813 5807 5802 5798 5794 5789 5784 5782 5781 5781 5779 5775 5773 5773 5771 5769 5767 5766 5764 5764 5763 5761 5759 5757 5757 5755 5755 5755 5753 5752 5751 5747 5746 5750 5753 5755
5846 5842 5839 5835 5830 5827 5822 5817 5809 5804 5800 5796 5792 5786 5783 5781 5779 5776 5775 5774 5774 5772 5770 5768 5766 5765 5765 5763 5761 5759 5758 5757 5755 5755 5755 5753 5751 5750 5748 5746 5746 5746 5750
5847 5843 5838 5834 5830 5826 5822 5818 5811 5805 5801 5797 5794 5790 5786 5782 5778 5777 5776 5774 5774 5773 5771 5770 5766 5765 5764 5763 5762 5760 5759 5757 5755 5754 5754 5755 5754 5753 5751 5747 5746 5746 5748
5848 5844 5841 5837 5832 5829 5824 5819 5812 5806 5803 5798 5795 5792 5788 5785 5783 5780 5779 5776 5775 5774 5772 5769 5767 5766 5765 5764 5762 5762 5760 5758 5756 5755 5754 5753 5754 5753 5751 5748 5745 5742 5743
5845 5843 5841 5838 5834 5830 5826 5821 5815 5808 5804 5800 5795 5791 5789 5786 5784 5782 5779 5778 5775 5774 5772 5770 5768 5766 5765 5763 5762 5761 5759 5758 5757 5756 5754 5753 5754 5752 5751 5750 5747 5741 5737
5841 5841 5840 5837 5835 5832 5827 5822 5816 5810 5805 5800 5796 5793 5789 5787 5784 5782 5778 5776 5773 5772 5770 5769 5767 5765 5764 5763 5761 5761 5759 5757 5755 5754 5752 5750 5752 5752 5750 5748 5746 5745 5740
5835 5836 5835 5834 5832 5829 5825 5818 5813 5807 5802 5799 5795 5792 5789 5786 5782 5779 5777 5775 5772 5770 5767 5767 5766 5764 5763 5762 5760 5759 5758 5755 5754 5752 5750 5748 5748 5748 5747 5746 5744 5743 5740
5828 5829 5828 5827 5825 5822 5819 5814 5810 5805 5801 5797 5793 5788 5785 5782 5779 5777 5775 5773 5770 5768 5766 5764 5763 5763 5762 5760 5758 5756 5756 5754 5752 5751 5749 5747 5746 5743 5744 5742 5741 5739 5737
5816 5818 5817 5816 5815 5813 5811 5808 5805 5802 5798 5793 5789 5785 5781 5778 5774 5773 5772 5770 5767 5765 5764 5762 5761 5760 5759 5757 5756 5754 5753 5752 5751 5749 5747 5745 5743 5740 5740 5738 5737 5736 5735
5803 5805 5805 5805 5805 5803 5801 5800 5797 5795 5792 5788 5784 5780 5777 5775 5771 5769 5768 5766 5764 5762 5761 5759 5759 5757 5756 5754 5753 5751 5750 5749 5748 5746 5745 5743 5741 5738 5736 5734 5732 5731 5729
5791 5792 5793 5793 5793 5792 5791 5790 5788 5787 5785 5782 5779 5776 5774 5770 5767 5765 5763 5761 5759 5759 5757 5756 5755 5754 5752 5751 5749 5747 5746 5744 5743 5743 5742 5741 5738 5735 5732 5732 5729 5726 5723
5779 5781 5782 5782 5781 5781 5781 5780 5779 5778 5777 5774 5772 5771 5768 5765 5762 5760 5757 5756 5754 5753 5751 5750 5749 5748 5748 5744 5741 5739 5740 5739 5738 5737 5737 5736 5734 5730 5726 5724 5722 5720 5717
5768 5769 5771 5771 5772 5773 5774 5772 5771 5770 5769 5767 5765 5764 5762 5758 5756 5754 5752 5749 5748 5747 5745 5744 5743 5742 5740 5736 5734 5732 5733 5734 5733 5732 5731 5731 5732 5727 5724 5719 5714 5712 5711
5758 5759 5761 5762 5764 5766 5766 5765 5764 5763 5761 5760 5758 5757 5754 5751 5749 5746 5744 5742 5741 5739 5738 5737 5737 5736 5735 5730 5728 5726 5726 5728 5728 5727 5725 5724 5723 5721 5717 5715 5711 5710 5708
5751 5751 5753 5754 5755 5756 5756 5755 5755 5754 5753 5752 5751 5750 5747 5744 5741 5738 5736 5735 5733 5732 5731 5731 5730 5729 5728 5724 5721 5718 5721 5722 5721 5721 5720 5718 5716 5711 5708 5707 5706 5704 5703
5741 5741 5743 5744 5744 5746 5747 5745 5745 5744 5744 5744 5743 5742 5740 5737 5734 5731 5729 5728 5726 5725 5724 5724 5724 5722 5720 5716 5713 5711 5715 5715 5715 5714 5712 5709 5707 5703 5699 5700 5699 5696 5696
5730 5731 5732 5732 5733 5735 5735 5733 5733 5734 5736 5736 5735 5733 5732 5729 5726 5723 5720 5720 5719 5717 5716 5715 5716 5714 5712 5709 5706 5703 5706 5707 5707 5706 5705 5704 5697 5693 5690 5690 5692 5690 5688
5719 5720 5720 5721 5723 5724 5724 5722 5722 5726 5727 5726 5725 5724 5722 5721 5721 5715 5712 5712 5710 5708 5707 5707 5706 5707 5706 5703 5699 5695 5694 5694 5696 5697 5697 5695 5688 5683 5681 5681 5681 5679 5677
5709 5710 5710 5712 5713 5714 5714 5713 5714 5716 5717 5716 5715 5715 5713 5712 5710 5707 5705 5704 5703 5703 5703 5702 5701 5701 5700 5696 5691 5687 5685 5684 5685 5688 5685 5681 5677 5674 5672 5671 5670 5668 5670
5698 5700 5700 5701 5701 5703 5705 5705 5706 5706 5707 5706 5705 5704 5703 5702 5700 5698 5699 5698 5698 5697 5695 5694 5693 5693 5691 5690 5687 5683 5680 5675 5675 5675 5674 5670 5667 5665 5665 5664 5662 5662 5664
5688 5689 5689 5690 5691 5694 5695 5696 5696 5697 5696 5696 5695 5695 5694 5693 5690 5690 5690 5690 5689 5688 5684 5684 5684 5681 5681 5679 5673 5672 5671 5669 5667 5663 5662 5663 5661 5660 5660 5659 5657 5655 5654
5678 5679 5679 5681 5683 5685 5686 5687 5687 5686 5685 5686 5686 5686 5685 5684 5683 5682 5680 5677 5676 5673 5670 5668 5667 5668 5666 5662 5659 5657 5655 5653 5650 5651 5655 5654 5654 5654 5653 5652 5650 5648 5645